Погода в Мискиндже

Россия / Республика Дагестан     41°25′25″N   47°50′45″E
темп.,
°C
ветер,
м/с
пор.,
м/с
влажн.,
%
обл.,
%
осадки,
мм/ч
давл.,
гПа
погр.,
м
25 июня, сб
сб2500:00+12з45852 1.1 101289
03:00+11з567930 1.1 101269
06:00+14з45742 0.0 1011102
09:00+21всв12451 0.0 10081072
12:00+20в44624 0.9 1009942
15:00+20в446253 3.1 1008880
18:00+17в238455 1.6 1009163
21:00+13юз1188100 2.1 101223
26 июня, вс
вс2600:00+13з458098 0.3 101166
03:00+12з338098 0.7 101138
06:00+15з2275100 0.0 101068
09:00+20юз1352100 0.1 1009989
12:00+17всв217073 0.8 1009379
15:00+19всв446895 3.0 1007653
18:00+16в2287100 2.6 1008247
21:00+13з338571 4.6 101136
27 июня, пн
пн2700:00+12зсз33780 0.1 101126
03:00+12з33730 0.1 101128
06:00+15з22710 0.0 101174
09:00+20всв22520 0.0 1010673
12:00+21в43580 0.1 10101062
15:00+21в436211 0.3 10101091
18:00+18в337926 0.5 1011443
21:00+14з23895 0.6 101227
28 июня, вт
вт2800:00+14з34780 0.3 101247
03:00+13з34721 0.3 101141
06:00+16з34690 0.0 101082
09:00+21в32540 0.0 1008636
12:00+21всв44590 0.1 1009812
15:00+21в44580 0.4 1009908
18:00+17в32750 0.1 1011420
21:00+12ссз119313 0.1 101411
29 июня, ср
ср2900:00+12з119135 0.4 101441
03:00+13з119272 2.0 101452
06:00+14всв128939 0.0 1014244
09:00+16в338077 0.2 1014700
12:00+17в336496 0.2 1014984
15:00+17в335757 0.3 10141085
18:00+15в33673 0.0 1015583
21:00+10зюз01871 0.0 101710